Index of /20260505/WXO-DD/model_caps/3km/12/010
Name Last modified Size Description
Parent Directory -
20260505T12Z_MSC_CAPS_AbsoluteVorticity_IsbL-0250_RLatLon0.03_PT010H.grib2 2026-05-05 18:09 1.1M
20260505T12Z_MSC_CAPS_AbsoluteVorticity_IsbL-0500_RLatLon0.03_PT010H.grib2 2026-05-05 18:09 1.1M
20260505T12Z_MSC_CAPS_AbsoluteVorticity_IsbL-0700_RLatLon0.03_PT010H.grib2 2026-05-05 18:09 1.0M
20260505T12Z_MSC_CAPS_AbsoluteVorticity_IsbL-0850_RLatLon0.03_PT010H.grib2 2026-05-05 18:09 1.3M
20260505T12Z_MSC_CAPS_AbsoluteVorticity_IsbL-1000_RLatLon0.03_PT010H.grib2 2026-05-05 18:09 1.4M
20260505T12Z_MSC_CAPS_AirDensity_AGL-120m_RLatLon0.03_PT010H.grib2 2026-05-05 18:09 1.4M
20260505T12Z_MSC_CAPS_AirDensity_AGL-40m_RLatLon0.03_PT010H.grib2 2026-05-05 18:09 1.4M
20260505T12Z_MSC_CAPS_AirDensity_AGL-80m_RLatLon0.03_PT010H.grib2 2026-05-05 18:09 1.4M
20260505T12Z_MSC_CAPS_AirTemp_AGL-120m_RLatLon0.03_PT010H.grib2 2026-05-05 18:09 1.8M
20260505T12Z_MSC_CAPS_AirTemp_AGL-2m_RLatLon0.03_PT010H.grib2 2026-05-05 18:09 1.7M
20260505T12Z_MSC_CAPS_AirTemp_AGL-40m_RLatLon0.03_PT010H.grib2 2026-05-05 18:09 1.5M
20260505T12Z_MSC_CAPS_AirTemp_AGL-80m_RLatLon0.03_PT010H.grib2 2026-05-05 18:09 1.8M
20260505T12Z_MSC_CAPS_AirTemp_IsbL-0050_RLatLon0.03_PT010H.grib2 2026-05-05 18:09 691K
20260505T12Z_MSC_CAPS_AirTemp_IsbL-0100_RLatLon0.03_PT010H.grib2 2026-05-05 18:09 952K
20260505T12Z_MSC_CAPS_AirTemp_IsbL-0150_RLatLon0.03_PT010H.grib2 2026-05-05 18:09 747K
20260505T12Z_MSC_CAPS_AirTemp_IsbL-0175_RLatLon0.03_PT010H.grib2 2026-05-05 18:09 774K
20260505T12Z_MSC_CAPS_AirTemp_IsbL-0200_RLatLon0.03_PT010H.grib2 2026-05-05 18:09 797K
20260505T12Z_MSC_CAPS_AirTemp_IsbL-0225_RLatLon0.03_PT010H.grib2 2026-05-05 18:09 795K
20260505T12Z_MSC_CAPS_AirTemp_IsbL-0250_RLatLon0.03_PT010H.grib2 2026-05-05 18:09 1.0M
20260505T12Z_MSC_CAPS_AirTemp_IsbL-0275_RLatLon0.03_PT010H.grib2 2026-05-05 18:09 1.0M
20260505T12Z_MSC_CAPS_AirTemp_IsbL-0300_RLatLon0.03_PT010H.grib2 2026-05-05 18:09 858K
20260505T12Z_MSC_CAPS_AirTemp_IsbL-0350_RLatLon0.03_PT010H.grib2 2026-05-05 18:09 759K
20260505T12Z_MSC_CAPS_AirTemp_IsbL-0400_RLatLon0.03_PT010H.grib2 2026-05-05 18:09 764K
20260505T12Z_MSC_CAPS_AirTemp_IsbL-0450_RLatLon0.03_PT010H.grib2 2026-05-05 18:09 774K
20260505T12Z_MSC_CAPS_AirTemp_IsbL-0500_RLatLon0.03_PT010H.grib2 2026-05-05 18:09 790K
20260505T12Z_MSC_CAPS_AirTemp_IsbL-0550_RLatLon0.03_PT010H.grib2 2026-05-05 18:09 804K
20260505T12Z_MSC_CAPS_AirTemp_IsbL-0600_RLatLon0.03_PT010H.grib2 2026-05-05 18:09 821K
20260505T12Z_MSC_CAPS_AirTemp_IsbL-0650_RLatLon0.03_PT010H.grib2 2026-05-05 18:09 849K
20260505T12Z_MSC_CAPS_AirTemp_IsbL-0700_RLatLon0.03_PT010H.grib2 2026-05-05 18:09 1.0M
20260505T12Z_MSC_CAPS_AirTemp_IsbL-0750_RLatLon0.03_PT010H.grib2 2026-05-05 18:09 1.0M
20260505T12Z_MSC_CAPS_AirTemp_IsbL-0800_RLatLon0.03_PT010H.grib2 2026-05-05 18:09 1.0M
20260505T12Z_MSC_CAPS_AirTemp_IsbL-0850_RLatLon0.03_PT010H.grib2 2026-05-05 18:09 1.0M
20260505T12Z_MSC_CAPS_AirTemp_IsbL-0875_RLatLon0.03_PT010H.grib2 2026-05-05 18:09 1.0M
20260505T12Z_MSC_CAPS_AirTemp_IsbL-0900_RLatLon0.03_PT010H.grib2 2026-05-05 18:09 1.0M
20260505T12Z_MSC_CAPS_AirTemp_IsbL-0925_RLatLon0.03_PT010H.grib2 2026-05-05 18:09 1.1M
20260505T12Z_MSC_CAPS_AirTemp_IsbL-0950_RLatLon0.03_PT010H.grib2 2026-05-05 18:09 1.0M
20260505T12Z_MSC_CAPS_AirTemp_IsbL-0970_RLatLon0.03_PT010H.grib2 2026-05-05 18:09 1.1M
20260505T12Z_MSC_CAPS_AirTemp_IsbL-0985_RLatLon0.03_PT010H.grib2 2026-05-05 18:09 1.0M
20260505T12Z_MSC_CAPS_AirTemp_IsbL-1000_RLatLon0.03_PT010H.grib2 2026-05-05 18:09 1.0M
20260505T12Z_MSC_CAPS_AirTemp_IsbL-1015_RLatLon0.03_PT010H.grib2 2026-05-05 18:09 1.0M
20260505T12Z_MSC_CAPS_Albedo_Sfc_RLatLon0.03_PT010H.grib2 2026-05-05 18:09 2.7M
20260505T12Z_MSC_CAPS_CAPE_Sfc_RLatLon0.03_PT010H.grib2 2026-05-05 18:09 225K
20260505T12Z_MSC_CAPS_CloudWater_EAtm_RLatLon0.03_PT010H.grib2 2026-05-05 18:09 1.4M
20260505T12Z_MSC_CAPS_ConvectivePrecip-Accum_Sfc_RLatLon0.03_PT010H.grib2 2026-05-05 18:09 2.4M
20260505T12Z_MSC_CAPS_DewPointDepression_AGL-120m_RLatLon0.03_PT010H.grib2 2026-05-05 18:09 2.1M
20260505T12Z_MSC_CAPS_DewPointDepression_AGL-2m_RLatLon0.03_PT010H.grib2 2026-05-05 18:09 2.2M
20260505T12Z_MSC_CAPS_DewPointDepression_AGL-40m_RLatLon0.03_PT010H.grib2 2026-05-05 18:09 2.2M
20260505T12Z_MSC_CAPS_DewPointDepression_AGL-80m_RLatLon0.03_PT010H.grib2 2026-05-05 18:09 2.1M
20260505T12Z_MSC_CAPS_DewPointDepression_IsbL-0050_RLatLon0.03_PT010H.grib2 2026-05-05 18:09 2.4K
20260505T12Z_MSC_CAPS_DewPointDepression_IsbL-0100_RLatLon0.03_PT010H.grib2 2026-05-05 18:09 57K
20260505T12Z_MSC_CAPS_DewPointDepression_IsbL-0150_RLatLon0.03_PT010H.grib2 2026-05-05 18:09 55K
20260505T12Z_MSC_CAPS_DewPointDepression_IsbL-0175_RLatLon0.03_PT010H.grib2 2026-05-05 18:09 196K
20260505T12Z_MSC_CAPS_DewPointDepression_IsbL-0200_RLatLon0.03_PT010H.grib2 2026-05-05 18:09 385K
20260505T12Z_MSC_CAPS_DewPointDepression_IsbL-0225_RLatLon0.03_PT010H.grib2 2026-05-05 18:09 594K
20260505T12Z_MSC_CAPS_DewPointDepression_IsbL-0250_RLatLon0.03_PT010H.grib2 2026-05-05 18:09 839K
20260505T12Z_MSC_CAPS_DewPointDepression_IsbL-0275_RLatLon0.03_PT010H.grib2 2026-05-05 18:09 1.0M
20260505T12Z_MSC_CAPS_DewPointDepression_IsbL-0300_RLatLon0.03_PT010H.grib2 2026-05-05 18:09 1.0M
20260505T12Z_MSC_CAPS_DewPointDepression_IsbL-0350_RLatLon0.03_PT010H.grib2 2026-05-05 18:09 1.1M
20260505T12Z_MSC_CAPS_DewPointDepression_IsbL-0400_RLatLon0.03_PT010H.grib2 2026-05-05 18:09 1.1M
20260505T12Z_MSC_CAPS_DewPointDepression_IsbL-0450_RLatLon0.03_PT010H.grib2 2026-05-05 18:09 1.1M
20260505T12Z_MSC_CAPS_DewPointDepression_IsbL-0500_RLatLon0.03_PT010H.grib2 2026-05-05 18:09 1.2M
20260505T12Z_MSC_CAPS_DewPointDepression_IsbL-0550_RLatLon0.03_PT010H.grib2 2026-05-05 18:09 1.2M
20260505T12Z_MSC_CAPS_DewPointDepression_IsbL-0600_RLatLon0.03_PT010H.grib2 2026-05-05 18:09 1.2M
20260505T12Z_MSC_CAPS_DewPointDepression_IsbL-0650_RLatLon0.03_PT010H.grib2 2026-05-05 18:09 1.2M
20260505T12Z_MSC_CAPS_DewPointDepression_IsbL-0700_RLatLon0.03_PT010H.grib2 2026-05-05 18:09 1.3M
20260505T12Z_MSC_CAPS_DewPointDepression_IsbL-0750_RLatLon0.03_PT010H.grib2 2026-05-05 18:09 1.3M
20260505T12Z_MSC_CAPS_DewPointDepression_IsbL-0800_RLatLon0.03_PT010H.grib2 2026-05-05 18:09 1.3M
20260505T12Z_MSC_CAPS_DewPointDepression_IsbL-0850_RLatLon0.03_PT010H.grib2 2026-05-05 18:09 1.3M
20260505T12Z_MSC_CAPS_DewPointDepression_IsbL-0875_RLatLon0.03_PT010H.grib2 2026-05-05 18:09 1.3M
20260505T12Z_MSC_CAPS_DewPointDepression_IsbL-0900_RLatLon0.03_PT010H.grib2 2026-05-05 18:09 1.3M
20260505T12Z_MSC_CAPS_DewPointDepression_IsbL-0925_RLatLon0.03_PT010H.grib2 2026-05-05 18:09 1.3M
20260505T12Z_MSC_CAPS_DewPointDepression_IsbL-0950_RLatLon0.03_PT010H.grib2 2026-05-05 18:09 1.4M
20260505T12Z_MSC_CAPS_DewPointDepression_IsbL-0970_RLatLon0.03_PT010H.grib2 2026-05-05 18:09 1.4M
20260505T12Z_MSC_CAPS_DewPointDepression_IsbL-0985_RLatLon0.03_PT010H.grib2 2026-05-05 18:09 1.4M
20260505T12Z_MSC_CAPS_DewPointDepression_IsbL-1000_RLatLon0.03_PT010H.grib2 2026-05-05 18:09 1.3M
20260505T12Z_MSC_CAPS_DewPointDepression_IsbL-1015_RLatLon0.03_PT010H.grib2 2026-05-05 18:09 1.3M
20260505T12Z_MSC_CAPS_DewPoint_AGL-120m_RLatLon0.03_PT010H.grib2 2026-05-05 18:09 3.7M
20260505T12Z_MSC_CAPS_DewPoint_AGL-2m_RLatLon0.03_PT010H.grib2 2026-05-05 18:09 2.1M
20260505T12Z_MSC_CAPS_DewPoint_AGL-40m_RLatLon0.03_PT010H.grib2 2026-05-05 18:09 3.7M
20260505T12Z_MSC_CAPS_DewPoint_AGL-80m_RLatLon0.03_PT010H.grib2 2026-05-05 18:09 3.7M
20260505T12Z_MSC_CAPS_DownwardLongwaveRadiationFlux-Accum_Sfc_RLatLon0.03_PT010H.grib2 2026-05-05 18:09 2.3M
20260505T12Z_MSC_CAPS_DownwardShortwaveRadiationFlux-Accum_NTAtm_RLatLon0.03_PT010H.grib2 2026-05-05 18:09 478K
20260505T12Z_MSC_CAPS_DownwardShortwaveRadiationFlux-Accum_Sfc_RLatLon0.03_PT010H.grib2 2026-05-05 18:09 2.6M
20260505T12Z_MSC_CAPS_FreezingRain-Accum_Sfc_RLatLon0.03_PT010H.grib2 2026-05-05 18:09 463K
20260505T12Z_MSC_CAPS_GeopotentialHeight_IsbL-0050_RLatLon0.03_PT010H.grib2 2026-05-05 18:09 621K
20260505T12Z_MSC_CAPS_GeopotentialHeight_IsbL-0100_RLatLon0.03_PT010H.grib2 2026-05-05 18:09 813K
20260505T12Z_MSC_CAPS_GeopotentialHeight_IsbL-0150_RLatLon0.03_PT010H.grib2 2026-05-05 18:09 605K
20260505T12Z_MSC_CAPS_GeopotentialHeight_IsbL-0175_RLatLon0.03_PT010H.grib2 2026-05-05 18:09 715K
20260505T12Z_MSC_CAPS_GeopotentialHeight_IsbL-0200_RLatLon0.03_PT010H.grib2 2026-05-05 18:09 737K
20260505T12Z_MSC_CAPS_GeopotentialHeight_IsbL-0225_RLatLon0.03_PT010H.grib2 2026-05-05 18:09 756K
20260505T12Z_MSC_CAPS_GeopotentialHeight_IsbL-0250_RLatLon0.03_PT010H.grib2 2026-05-05 18:09 767K
20260505T12Z_MSC_CAPS_GeopotentialHeight_IsbL-0275_RLatLon0.03_PT010H.grib2 2026-05-05 18:09 776K
20260505T12Z_MSC_CAPS_GeopotentialHeight_IsbL-0300_RLatLon0.03_PT010H.grib2 2026-05-05 18:09 782K
20260505T12Z_MSC_CAPS_GeopotentialHeight_IsbL-0350_RLatLon0.03_PT010H.grib2 2026-05-05 18:09 783K
20260505T12Z_MSC_CAPS_GeopotentialHeight_IsbL-0400_RLatLon0.03_PT010H.grib2 2026-05-05 18:09 779K
20260505T12Z_MSC_CAPS_GeopotentialHeight_IsbL-0450_RLatLon0.03_PT010H.grib2 2026-05-05 18:09 771K
20260505T12Z_MSC_CAPS_GeopotentialHeight_IsbL-0500_RLatLon0.03_PT010H.grib2 2026-05-05 18:09 766K
20260505T12Z_MSC_CAPS_GeopotentialHeight_IsbL-0550_RLatLon0.03_PT010H.grib2 2026-05-05 18:09 645K
20260505T12Z_MSC_CAPS_GeopotentialHeight_IsbL-0600_RLatLon0.03_PT010H.grib2 2026-05-05 18:09 637K
20260505T12Z_MSC_CAPS_GeopotentialHeight_IsbL-0650_RLatLon0.03_PT010H.grib2 2026-05-05 18:09 811K
20260505T12Z_MSC_CAPS_GeopotentialHeight_IsbL-0700_RLatLon0.03_PT010H.grib2 2026-05-05 18:09 815K
20260505T12Z_MSC_CAPS_GeopotentialHeight_IsbL-0750_RLatLon0.03_PT010H.grib2 2026-05-05 18:09 897K
20260505T12Z_MSC_CAPS_GeopotentialHeight_IsbL-0800_RLatLon0.03_PT010H.grib2 2026-05-05 18:09 825K
20260505T12Z_MSC_CAPS_GeopotentialHeight_IsbL-0850_RLatLon0.03_PT010H.grib2 2026-05-05 18:09 834K
20260505T12Z_MSC_CAPS_GeopotentialHeight_IsbL-0875_RLatLon0.03_PT010H.grib2 2026-05-05 18:09 825K
20260505T12Z_MSC_CAPS_GeopotentialHeight_IsbL-0900_RLatLon0.03_PT010H.grib2 2026-05-05 18:09 847K
20260505T12Z_MSC_CAPS_GeopotentialHeight_IsbL-0925_RLatLon0.03_PT010H.grib2 2026-05-05 18:09 843K
20260505T12Z_MSC_CAPS_GeopotentialHeight_IsbL-0950_RLatLon0.03_PT010H.grib2 2026-05-05 18:09 673K
20260505T12Z_MSC_CAPS_GeopotentialHeight_IsbL-0970_RLatLon0.03_PT010H.grib2 2026-05-05 18:09 682K
20260505T12Z_MSC_CAPS_GeopotentialHeight_IsbL-0985_RLatLon0.03_PT010H.grib2 2026-05-05 18:09 689K
20260505T12Z_MSC_CAPS_GeopotentialHeight_IsbL-1000_RLatLon0.03_PT010H.grib2 2026-05-05 18:09 696K
20260505T12Z_MSC_CAPS_GeopotentialHeight_IsbL-1015_RLatLon0.03_PT010H.grib2 2026-05-05 18:09 704K
20260505T12Z_MSC_CAPS_GeopotentialHeight_Sfc_RLatLon0.03_PT010H.grib2 2026-05-05 18:09 1.0M
20260505T12Z_MSC_CAPS_IcePellets-Accum_Sfc_RLatLon0.03_PT010H.grib2 2026-05-05 18:09 67K
20260505T12Z_MSC_CAPS_LatentHeatNetFlux_Sfc_RLatLon0.03_PT010H.grib2 2026-05-05 18:09 2.0M
20260505T12Z_MSC_CAPS_LiftedIndex-MU-VT_IsbL-0500_RLatLon0.03_PT010H.grib2 2026-05-05 18:09 3.3M
20260505T12Z_MSC_CAPS_MixedLayerThickness_Sfc_RLatLon0.03_PT010H.nc 2026-05-05 18:13 16M
20260505T12Z_MSC_CAPS_NetLongwaveRadiationFlux-Accum_Sfc_RLatLon0.03_PT010H.grib2 2026-05-05 18:09 3.0M
20260505T12Z_MSC_CAPS_NetShortwaveRadiationFlux-Accum_Sfc_RLatLon0.03_PT010H.grib2 2026-05-05 18:09 2.7M
20260505T12Z_MSC_CAPS_PlanetaryBoundaryLayerHeight_Sfc_RLatLon0.03_PT010H.grib2 2026-05-05 18:09 3.0M
20260505T12Z_MSC_CAPS_Precip-Accum_Sfc_RLatLon0.03_PT010H.grib2 2026-05-05 18:09 3.6M
20260505T12Z_MSC_CAPS_PrecipRate_Sfc_RLatLon0.03_PT010H.grib2 2026-05-05 18:09 391K
20260505T12Z_MSC_CAPS_PrecipType-Instant_Sfc_RLatLon0.03_PT010H.grib2 2026-05-05 18:09 1.8M
20260505T12Z_MSC_CAPS_Pressure_MSL_RLatLon0.03_PT010H.grib2 2026-05-05 18:09 928K
20260505T12Z_MSC_CAPS_Pressure_Sfc_RLatLon0.03_PT010H.grib2 2026-05-05 18:09 1.2M
20260505T12Z_MSC_CAPS_RadiativeTemp_Sfc_RLatLon0.03_PT010H.grib2 2026-05-05 18:09 2.1M
20260505T12Z_MSC_CAPS_Rain-Accum_Sfc_RLatLon0.03_PT010H.grib2 2026-05-05 18:09 1.8M
20260505T12Z_MSC_CAPS_RelativeHumidity_AGL-120m_RLatLon0.03_PT010H.grib2 2026-05-05 18:09 2.8M
20260505T12Z_MSC_CAPS_RelativeHumidity_AGL-2m_RLatLon0.03_PT010H.grib2 2026-05-05 18:09 3.0M
20260505T12Z_MSC_CAPS_RelativeHumidity_AGL-40m_RLatLon0.03_PT010H.grib2 2026-05-05 18:09 2.9M
20260505T12Z_MSC_CAPS_RelativeHumidity_AGL-80m_RLatLon0.03_PT010H.grib2 2026-05-05 18:09 2.8M
20260505T12Z_MSC_CAPS_RelativeHumidity_IsbL-0050_RLatLon0.03_PT010H.grib2 2026-05-05 18:09 958K
20260505T12Z_MSC_CAPS_RelativeHumidity_IsbL-0100_RLatLon0.03_PT010H.grib2 2026-05-05 18:09 849K
20260505T12Z_MSC_CAPS_RelativeHumidity_IsbL-0150_RLatLon0.03_PT010H.grib2 2026-05-05 18:09 585K
20260505T12Z_MSC_CAPS_RelativeHumidity_IsbL-0175_RLatLon0.03_PT010H.grib2 2026-05-05 18:09 466K
20260505T12Z_MSC_CAPS_RelativeHumidity_IsbL-0200_RLatLon0.03_PT010H.grib2 2026-05-05 18:09 644K
20260505T12Z_MSC_CAPS_RelativeHumidity_IsbL-0225_RLatLon0.03_PT010H.grib2 2026-05-05 18:09 869K
20260505T12Z_MSC_CAPS_RelativeHumidity_IsbL-0250_RLatLon0.03_PT010H.grib2 2026-05-05 18:09 1.1M
20260505T12Z_MSC_CAPS_RelativeHumidity_IsbL-0275_RLatLon0.03_PT010H.grib2 2026-05-05 18:09 1.4M
20260505T12Z_MSC_CAPS_RelativeHumidity_IsbL-0300_RLatLon0.03_PT010H.grib2 2026-05-05 18:09 1.4M
20260505T12Z_MSC_CAPS_RelativeHumidity_IsbL-0350_RLatLon0.03_PT010H.grib2 2026-05-05 18:09 1.9M
20260505T12Z_MSC_CAPS_RelativeHumidity_IsbL-0400_RLatLon0.03_PT010H.grib2 2026-05-05 18:09 1.8M
20260505T12Z_MSC_CAPS_RelativeHumidity_IsbL-0450_RLatLon0.03_PT010H.grib2 2026-05-05 18:09 1.9M
20260505T12Z_MSC_CAPS_RelativeHumidity_IsbL-0500_RLatLon0.03_PT010H.grib2 2026-05-05 18:09 1.9M
20260505T12Z_MSC_CAPS_RelativeHumidity_IsbL-0550_RLatLon0.03_PT010H.grib2 2026-05-05 18:09 2.1M
20260505T12Z_MSC_CAPS_RelativeHumidity_IsbL-0600_RLatLon0.03_PT010H.grib2 2026-05-05 18:09 2.1M
20260505T12Z_MSC_CAPS_RelativeHumidity_IsbL-0650_RLatLon0.03_PT010H.grib2 2026-05-05 18:09 2.2M
20260505T12Z_MSC_CAPS_RelativeHumidity_IsbL-0700_RLatLon0.03_PT010H.grib2 2026-05-05 18:09 2.3M
20260505T12Z_MSC_CAPS_RelativeHumidity_IsbL-0750_RLatLon0.03_PT010H.grib2 2026-05-05 18:09 2.3M
20260505T12Z_MSC_CAPS_RelativeHumidity_IsbL-0800_RLatLon0.03_PT010H.grib2 2026-05-05 18:09 2.5M
20260505T12Z_MSC_CAPS_RelativeHumidity_IsbL-0850_RLatLon0.03_PT010H.grib2 2026-05-05 18:09 2.5M
20260505T12Z_MSC_CAPS_RelativeHumidity_IsbL-0875_RLatLon0.03_PT010H.grib2 2026-05-05 18:09 2.6M
20260505T12Z_MSC_CAPS_RelativeHumidity_IsbL-0900_RLatLon0.03_PT010H.grib2 2026-05-05 18:09 2.6M
20260505T12Z_MSC_CAPS_RelativeHumidity_IsbL-0925_RLatLon0.03_PT010H.grib2 2026-05-05 18:09 2.7M
20260505T12Z_MSC_CAPS_RelativeHumidity_IsbL-0950_RLatLon0.03_PT010H.grib2 2026-05-05 18:09 2.7M
20260505T12Z_MSC_CAPS_RelativeHumidity_IsbL-0970_RLatLon0.03_PT010H.grib2 2026-05-05 18:09 2.8M
20260505T12Z_MSC_CAPS_RelativeHumidity_IsbL-0985_RLatLon0.03_PT010H.grib2 2026-05-05 18:09 2.9M
20260505T12Z_MSC_CAPS_RelativeHumidity_IsbL-1000_RLatLon0.03_PT010H.grib2 2026-05-05 18:09 2.9M
20260505T12Z_MSC_CAPS_RelativeHumidity_IsbL-1015_RLatLon0.03_PT010H.grib2 2026-05-05 18:09 2.9M
20260505T12Z_MSC_CAPS_Runoff-Accum_Sfc_RLatLon0.03_PT010H.grib2 2026-05-05 18:09 262K
20260505T12Z_MSC_CAPS_SeaIceAreaFraction_Sfc_RLatLon0.03_PT010H.nc 2026-05-05 18:13 15M
20260505T12Z_MSC_CAPS_SeaIceCompressiveStrength_Sfc_RLatLon0.03_PT010H.nc 2026-05-05 18:13 15M
20260505T12Z_MSC_CAPS_SeaIceDivergence_Sfc_RLatLon0.03_PT010H.nc 2026-05-05 18:13 15M
20260505T12Z_MSC_CAPS_SeaIceInternalPressure_Sfc_RLatLon0.03_PT010H.nc 2026-05-05 18:13 15M
20260505T12Z_MSC_CAPS_SeaIceShear_Sfc_RLatLon0.03_PT010H.nc 2026-05-05 18:13 15M
20260505T12Z_MSC_CAPS_SeaIceSnowTemp_Sfc_RLatLon0.03_PT010H.nc 2026-05-05 18:13 14M
20260505T12Z_MSC_CAPS_SeaIceSnowVolume_Sfc_RLatLon0.03_PT010H.nc 2026-05-05 18:13 15M
20260505T12Z_MSC_CAPS_SeaIceVelocityX_Sfc_RLatLon0.03_PT010H.nc 2026-05-05 18:13 15M
20260505T12Z_MSC_CAPS_SeaIceVelocityY_Sfc_RLatLon0.03_PT010H.nc 2026-05-05 18:13 15M
20260505T12Z_MSC_CAPS_SeaIceVolume_Sfc_RLatLon0.03_PT010H.nc 2026-05-05 18:13 15M
20260505T12Z_MSC_CAPS_SeaSurfaceHeight_Sfc_RLatLon0.03_PT010H.nc 2026-05-05 18:13 16M
20260505T12Z_MSC_CAPS_SeaWaterSalinity_DBS-0.5m_RLatLon0.03_PT010H.nc 2026-05-05 18:13 16M
20260505T12Z_MSC_CAPS_SeaWaterSalinity_DBS-all_RLatLon0.03_PT010H.nc 2026-05-05 18:13 107M
20260505T12Z_MSC_CAPS_SeaWaterTemp_DBS-0.5m_RLatLon0.03_PT010H.nc 2026-05-05 18:13 15M
20260505T12Z_MSC_CAPS_SeaWaterTemp_DBS-all_RLatLon0.03_PT010H.nc 2026-05-05 18:13 88M
20260505T12Z_MSC_CAPS_SeaWaterVelocityX_DBS-0.5m_RLatLon0.03_PT010H.nc 2026-05-05 18:13 17M
20260505T12Z_MSC_CAPS_SeaWaterVelocityX_DBS-all_RLatLon0.03_PT010H.nc 2026-05-05 18:13 208M
20260505T12Z_MSC_CAPS_SeaWaterVelocityY_DBS-0.5m_RLatLon0.03_PT010H.nc 2026-05-05 18:13 17M
20260505T12Z_MSC_CAPS_SeaWaterVelocityY_DBS-all_RLatLon0.03_PT010H.nc 2026-05-05 18:13 217M
20260505T12Z_MSC_CAPS_SensibleHeatNetFlux_Sfc_RLatLon0.03_PT010H.grib2 2026-05-05 18:09 2.2M
20260505T12Z_MSC_CAPS_ShowalterIndex_IsbL-0500_RLatLon0.03_PT010H.grib2 2026-05-05 18:09 4.3M
20260505T12Z_MSC_CAPS_Snow-Accum_Sfc_RLatLon0.03_PT010H.grib2 2026-05-05 18:09 2.6M
20260505T12Z_MSC_CAPS_SnowDensity_Sfc_RLatLon0.03_PT010H.grib2 2026-05-05 18:09 1.2M
20260505T12Z_MSC_CAPS_SnowDepthWaterEquivalent_Sfc_RLatLon0.03_PT010H.grib2 2026-05-05 18:09 654K
20260505T12Z_MSC_CAPS_SnowDepth_Sfc_RLatLon0.03_PT010H.grib2 2026-05-05 18:09 1.1M
20260505T12Z_MSC_CAPS_SoilTemp_DBS-0to10cm_RLatLon0.03_PT010H.grib2 2026-05-05 18:09 1.5M
20260505T12Z_MSC_CAPS_SoilTemp_Sfc_RLatLon0.03_PT010H.grib2 2026-05-05 18:09 1.8M
20260505T12Z_MSC_CAPS_SoilVolumetricIceContent_Sfc_RLatLon0.03_PT010H.grib2 2026-05-05 18:09 1.3M
20260505T12Z_MSC_CAPS_SoilVolumetricWaterContent_DBS-0to10cm_RLatLon0.03_PT010H.grib2 2026-05-05 18:09 1.3M
20260505T12Z_MSC_CAPS_SoilVolumetricWaterContent_DBS-0to1cm_RLatLon0.03_PT010H.grib2 2026-05-05 18:09 1.7M
20260505T12Z_MSC_CAPS_SpecificHumidity_AGL-120m_RLatLon0.03_PT010H.grib2 2026-05-05 18:09 1.4M
20260505T12Z_MSC_CAPS_SpecificHumidity_AGL-2m_RLatLon0.03_PT010H.grib2 2026-05-05 18:09 1.7M
20260505T12Z_MSC_CAPS_SpecificHumidity_AGL-40m_RLatLon0.03_PT010H.grib2 2026-05-05 18:09 1.5M
20260505T12Z_MSC_CAPS_SpecificHumidity_AGL-80m_RLatLon0.03_PT010H.grib2 2026-05-05 18:09 1.5M
20260505T12Z_MSC_CAPS_SpecificHumidity_IsbL-0050_RLatLon0.03_PT010H.grib2 2026-05-05 18:09 886K
20260505T12Z_MSC_CAPS_SpecificHumidity_IsbL-0100_RLatLon0.03_PT010H.grib2 2026-05-05 18:09 1.0M
20260505T12Z_MSC_CAPS_SpecificHumidity_IsbL-0150_RLatLon0.03_PT010H.grib2 2026-05-05 18:09 760K
20260505T12Z_MSC_CAPS_SpecificHumidity_IsbL-0175_RLatLon0.03_PT010H.grib2 2026-05-05 18:09 1.0M
20260505T12Z_MSC_CAPS_SpecificHumidity_IsbL-0200_RLatLon0.03_PT010H.grib2 2026-05-05 18:09 868K
20260505T12Z_MSC_CAPS_SpecificHumidity_IsbL-0225_RLatLon0.03_PT010H.grib2 2026-05-05 18:09 1.0M
20260505T12Z_MSC_CAPS_SpecificHumidity_IsbL-0250_RLatLon0.03_PT010H.grib2 2026-05-05 18:09 1.1M
20260505T12Z_MSC_CAPS_SpecificHumidity_IsbL-0275_RLatLon0.03_PT010H.grib2 2026-05-05 18:09 1.1M
20260505T12Z_MSC_CAPS_SpecificHumidity_IsbL-0300_RLatLon0.03_PT010H.grib2 2026-05-05 18:09 1.0M
20260505T12Z_MSC_CAPS_SpecificHumidity_IsbL-0350_RLatLon0.03_PT010H.grib2 2026-05-05 18:09 1.3M
20260505T12Z_MSC_CAPS_SpecificHumidity_IsbL-0400_RLatLon0.03_PT010H.grib2 2026-05-05 18:09 1.2M
20260505T12Z_MSC_CAPS_SpecificHumidity_IsbL-0450_RLatLon0.03_PT010H.grib2 2026-05-05 18:09 1.1M
20260505T12Z_MSC_CAPS_SpecificHumidity_IsbL-0500_RLatLon0.03_PT010H.grib2 2026-05-05 18:09 1.3M
20260505T12Z_MSC_CAPS_SpecificHumidity_IsbL-0550_RLatLon0.03_PT010H.grib2 2026-05-05 18:09 1.2M
20260505T12Z_MSC_CAPS_SpecificHumidity_IsbL-0600_RLatLon0.03_PT010H.grib2 2026-05-05 18:09 1.3M
20260505T12Z_MSC_CAPS_SpecificHumidity_IsbL-0650_RLatLon0.03_PT010H.grib2 2026-05-05 18:09 1.5M
20260505T12Z_MSC_CAPS_SpecificHumidity_IsbL-0700_RLatLon0.03_PT010H.grib2 2026-05-05 18:09 1.3M
20260505T12Z_MSC_CAPS_SpecificHumidity_IsbL-0750_RLatLon0.03_PT010H.grib2 2026-05-05 18:09 1.4M
20260505T12Z_MSC_CAPS_SpecificHumidity_IsbL-0800_RLatLon0.03_PT010H.grib2 2026-05-05 18:09 1.6M
20260505T12Z_MSC_CAPS_SpecificHumidity_IsbL-0850_RLatLon0.03_PT010H.grib2 2026-05-05 18:09 1.7M
20260505T12Z_MSC_CAPS_SpecificHumidity_IsbL-0875_RLatLon0.03_PT010H.grib2 2026-05-05 18:09 1.4M
20260505T12Z_MSC_CAPS_SpecificHumidity_IsbL-0900_RLatLon0.03_PT010H.grib2 2026-05-05 18:09 1.5M
20260505T12Z_MSC_CAPS_SpecificHumidity_IsbL-0925_RLatLon0.03_PT010H.grib2 2026-05-05 18:09 1.5M
20260505T12Z_MSC_CAPS_SpecificHumidity_IsbL-0950_RLatLon0.03_PT010H.grib2 2026-05-05 18:09 1.6M
20260505T12Z_MSC_CAPS_SpecificHumidity_IsbL-0970_RLatLon0.03_PT010H.grib2 2026-05-05 18:09 1.6M
20260505T12Z_MSC_CAPS_SpecificHumidity_IsbL-0985_RLatLon0.03_PT010H.grib2 2026-05-05 18:09 1.7M
20260505T12Z_MSC_CAPS_SpecificHumidity_IsbL-1000_RLatLon0.03_PT010H.grib2 2026-05-05 18:09 1.7M
20260505T12Z_MSC_CAPS_SpecificHumidity_IsbL-1015_RLatLon0.03_PT010H.grib2 2026-05-05 18:09 1.7M
20260505T12Z_MSC_CAPS_SpecificHumidity_Sfc_RLatLon0.03_PT010H.grib2 2026-05-05 18:09 2.1M
20260505T12Z_MSC_CAPS_StormRelativeHelicity_Sfc_RLatLon0.03_PT010H.grib2 2026-05-05 18:09 3.3M
20260505T12Z_MSC_CAPS_Thickness_IsbL-1000to0500_RLatLon0.03_PT010H.grib2 2026-05-05 18:09 473K
20260505T12Z_MSC_CAPS_TotalCloudCover_Sfc_RLatLon0.03_PT010H.grib2 2026-05-05 18:09 3.4M
20260505T12Z_MSC_CAPS_TurboclineDepth_Sfc_RLatLon0.03_PT010H.nc 2026-05-05 18:13 16M
20260505T12Z_MSC_CAPS_UpwardLongwaveRadiationFlux_NTAtm_RLatLon0.03_PT010H.grib2 2026-05-05 18:09 2.8M
20260505T12Z_MSC_CAPS_UpwardShortwaveRadiationFlux_NTAtm_RLatLon0.03_PT010H.grib2 2026-05-05 18:09 2.3M
20260505T12Z_MSC_CAPS_VerticalVelocity_IsbL-0250_RLatLon0.03_PT010H.grib2 2026-05-05 18:09 1.2M
20260505T12Z_MSC_CAPS_VerticalVelocity_IsbL-0500_RLatLon0.03_PT010H.grib2 2026-05-05 18:09 1.2M
20260505T12Z_MSC_CAPS_VerticalVelocity_IsbL-0700_RLatLon0.03_PT010H.grib2 2026-05-05 18:09 1.0M
20260505T12Z_MSC_CAPS_VerticalVelocity_IsbL-0850_RLatLon0.03_PT010H.grib2 2026-05-05 18:09 1.1M
20260505T12Z_MSC_CAPS_VerticalVelocity_IsbL-1000_RLatLon0.03_PT010H.grib2 2026-05-05 18:09 1.1M
20260505T12Z_MSC_CAPS_WindDir_AGL-10m_RLatLon0.03_PT010H.grib2 2026-05-05 18:09 2.4M
20260505T12Z_MSC_CAPS_WindDir_AGL-120m_RLatLon0.03_PT010H.grib2 2026-05-05 18:09 1.2M
20260505T12Z_MSC_CAPS_WindDir_AGL-40m_RLatLon0.03_PT010H.grib2 2026-05-05 18:09 1.4M
20260505T12Z_MSC_CAPS_WindDir_AGL-80m_RLatLon0.03_PT010H.grib2 2026-05-05 18:09 1.3M
20260505T12Z_MSC_CAPS_WindDir_IsbL-0050_RLatLon0.03_PT010H.grib2 2026-05-05 18:09 1.1M
20260505T12Z_MSC_CAPS_WindDir_IsbL-0100_RLatLon0.03_PT010H.grib2 2026-05-05 18:09 1.0M
20260505T12Z_MSC_CAPS_WindDir_IsbL-0150_RLatLon0.03_PT010H.grib2 2026-05-05 18:09 1.0M
20260505T12Z_MSC_CAPS_WindDir_IsbL-0175_RLatLon0.03_PT010H.grib2 2026-05-05 18:09 1.0M
20260505T12Z_MSC_CAPS_WindDir_IsbL-0200_RLatLon0.03_PT010H.grib2 2026-05-05 18:09 1.1M
20260505T12Z_MSC_CAPS_WindDir_IsbL-0225_RLatLon0.03_PT010H.grib2 2026-05-05 18:09 1.1M
20260505T12Z_MSC_CAPS_WindDir_IsbL-0250_RLatLon0.03_PT010H.grib2 2026-05-05 18:09 1.1M
20260505T12Z_MSC_CAPS_WindDir_IsbL-0275_RLatLon0.03_PT010H.grib2 2026-05-05 18:09 1.1M
20260505T12Z_MSC_CAPS_WindDir_IsbL-0300_RLatLon0.03_PT010H.grib2 2026-05-05 18:09 1.1M
20260505T12Z_MSC_CAPS_WindDir_IsbL-0350_RLatLon0.03_PT010H.grib2 2026-05-05 18:09 1.1M
20260505T12Z_MSC_CAPS_WindDir_IsbL-0400_RLatLon0.03_PT010H.grib2 2026-05-05 18:09 1.1M
20260505T12Z_MSC_CAPS_WindDir_IsbL-0450_RLatLon0.03_PT010H.grib2 2026-05-05 18:09 1.2M
20260505T12Z_MSC_CAPS_WindDir_IsbL-0500_RLatLon0.03_PT010H.grib2 2026-05-05 18:09 1.2M
20260505T12Z_MSC_CAPS_WindDir_IsbL-0550_RLatLon0.03_PT010H.grib2 2026-05-05 18:09 1.3M
20260505T12Z_MSC_CAPS_WindDir_IsbL-0600_RLatLon0.03_PT010H.grib2 2026-05-05 18:09 1.3M
20260505T12Z_MSC_CAPS_WindDir_IsbL-0650_RLatLon0.03_PT010H.grib2 2026-05-05 18:09 1.3M
20260505T12Z_MSC_CAPS_WindDir_IsbL-0700_RLatLon0.03_PT010H.grib2 2026-05-05 18:09 1.4M
20260505T12Z_MSC_CAPS_WindDir_IsbL-0750_RLatLon0.03_PT010H.grib2 2026-05-05 18:09 1.6M
20260505T12Z_MSC_CAPS_WindDir_IsbL-0800_RLatLon0.03_PT010H.grib2 2026-05-05 18:09 1.6M
20260505T12Z_MSC_CAPS_WindDir_IsbL-0850_RLatLon0.03_PT010H.grib2 2026-05-05 18:09 1.8M
20260505T12Z_MSC_CAPS_WindDir_IsbL-0875_RLatLon0.03_PT010H.grib2 2026-05-05 18:09 1.9M
20260505T12Z_MSC_CAPS_WindDir_IsbL-0900_RLatLon0.03_PT010H.grib2 2026-05-05 18:09 1.9M
20260505T12Z_MSC_CAPS_WindDir_IsbL-0925_RLatLon0.03_PT010H.grib2 2026-05-05 18:09 2.0M
20260505T12Z_MSC_CAPS_WindDir_IsbL-0950_RLatLon0.03_PT010H.grib2 2026-05-05 18:09 2.1M
20260505T12Z_MSC_CAPS_WindDir_IsbL-0970_RLatLon0.03_PT010H.grib2 2026-05-05 18:09 2.1M
20260505T12Z_MSC_CAPS_WindDir_IsbL-0985_RLatLon0.03_PT010H.grib2 2026-05-05 18:09 2.2M
20260505T12Z_MSC_CAPS_WindDir_IsbL-1000_RLatLon0.03_PT010H.grib2 2026-05-05 18:09 2.3M
20260505T12Z_MSC_CAPS_WindDir_IsbL-1015_RLatLon0.03_PT010H.grib2 2026-05-05 18:09 2.3M
20260505T12Z_MSC_CAPS_WindGust-Max_AGL-10m_RLatLon0.03_PT010H.grib2 2026-05-05 18:09 2.4M
20260505T12Z_MSC_CAPS_WindGust-Min_AGL-10m_RLatLon0.03_PT010H.grib2 2026-05-05 18:09 2.5M
20260505T12Z_MSC_CAPS_WindGust_AGL-10m_RLatLon0.03_PT010H.grib2 2026-05-05 18:09 2.6M
20260505T12Z_MSC_CAPS_WindSpeed_AGL-10m_RLatLon0.03_PT010H.grib2 2026-05-05 18:09 2.1M
20260505T12Z_MSC_CAPS_WindSpeed_AGL-120m_RLatLon0.03_PT010H.grib2 2026-05-05 18:09 1.2M
20260505T12Z_MSC_CAPS_WindSpeed_AGL-40m_RLatLon0.03_PT010H.grib2 2026-05-05 18:09 1.2M
20260505T12Z_MSC_CAPS_WindSpeed_AGL-80m_RLatLon0.03_PT010H.grib2 2026-05-05 18:09 1.2M
20260505T12Z_MSC_CAPS_WindSpeed_IsbL-0050_RLatLon0.03_PT010H.grib2 2026-05-05 18:09 965K
20260505T12Z_MSC_CAPS_WindSpeed_IsbL-0100_RLatLon0.03_PT010H.grib2 2026-05-05 18:09 1.0M
20260505T12Z_MSC_CAPS_WindSpeed_IsbL-0150_RLatLon0.03_PT010H.grib2 2026-05-05 18:09 1.0M
20260505T12Z_MSC_CAPS_WindSpeed_IsbL-0175_RLatLon0.03_PT010H.grib2 2026-05-05 18:09 1.1M
20260505T12Z_MSC_CAPS_WindSpeed_IsbL-0200_RLatLon0.03_PT010H.grib2 2026-05-05 18:09 1.2M
20260505T12Z_MSC_CAPS_WindSpeed_IsbL-0225_RLatLon0.03_PT010H.grib2 2026-05-05 18:09 961K
20260505T12Z_MSC_CAPS_WindSpeed_IsbL-0250_RLatLon0.03_PT010H.grib2 2026-05-05 18:09 1.0M
20260505T12Z_MSC_CAPS_WindSpeed_IsbL-0275_RLatLon0.03_PT010H.grib2 2026-05-05 18:09 1.0M
20260505T12Z_MSC_CAPS_WindSpeed_IsbL-0300_RLatLon0.03_PT010H.grib2 2026-05-05 18:09 1.0M
20260505T12Z_MSC_CAPS_WindSpeed_IsbL-0350_RLatLon0.03_PT010H.grib2 2026-05-05 18:09 1.0M
20260505T12Z_MSC_CAPS_WindSpeed_IsbL-0400_RLatLon0.03_PT010H.grib2 2026-05-05 18:09 1.0M
20260505T12Z_MSC_CAPS_WindSpeed_IsbL-0450_RLatLon0.03_PT010H.grib2 2026-05-05 18:09 1.0M
20260505T12Z_MSC_CAPS_WindSpeed_IsbL-0500_RLatLon0.03_PT010H.grib2 2026-05-05 18:09 1.4M
20260505T12Z_MSC_CAPS_WindSpeed_IsbL-0550_RLatLon0.03_PT010H.grib2 2026-05-05 18:09 1.4M
20260505T12Z_MSC_CAPS_WindSpeed_IsbL-0600_RLatLon0.03_PT010H.grib2 2026-05-05 18:09 1.4M
20260505T12Z_MSC_CAPS_WindSpeed_IsbL-0650_RLatLon0.03_PT010H.grib2 2026-05-05 18:09 1.5M
20260505T12Z_MSC_CAPS_WindSpeed_IsbL-0700_RLatLon0.03_PT010H.grib2 2026-05-05 18:09 1.5M
20260505T12Z_MSC_CAPS_WindSpeed_IsbL-0750_RLatLon0.03_PT010H.grib2 2026-05-05 18:09 1.5M
20260505T12Z_MSC_CAPS_WindSpeed_IsbL-0800_RLatLon0.03_PT010H.grib2 2026-05-05 18:09 1.7M
20260505T12Z_MSC_CAPS_WindSpeed_IsbL-0850_RLatLon0.03_PT010H.grib2 2026-05-05 18:09 1.8M
20260505T12Z_MSC_CAPS_WindSpeed_IsbL-0875_RLatLon0.03_PT010H.grib2 2026-05-05 18:09 1.9M
20260505T12Z_MSC_CAPS_WindSpeed_IsbL-0900_RLatLon0.03_PT010H.grib2 2026-05-05 18:09 1.8M
20260505T12Z_MSC_CAPS_WindSpeed_IsbL-0925_RLatLon0.03_PT010H.grib2 2026-05-05 18:09 1.8M
20260505T12Z_MSC_CAPS_WindSpeed_IsbL-0950_RLatLon0.03_PT010H.grib2 2026-05-05 18:09 1.9M
20260505T12Z_MSC_CAPS_WindSpeed_IsbL-0970_RLatLon0.03_PT010H.grib2 2026-05-05 18:09 2.1M
20260505T12Z_MSC_CAPS_WindSpeed_IsbL-0985_RLatLon0.03_PT010H.grib2 2026-05-05 18:09 2.1M
20260505T12Z_MSC_CAPS_WindSpeed_IsbL-1000_RLatLon0.03_PT010H.grib2 2026-05-05 18:09 2.1M
20260505T12Z_MSC_CAPS_WindSpeed_IsbL-1015_RLatLon0.03_PT010H.grib2 2026-05-05 18:09 2.1M
20260505T12Z_MSC_CAPS_WindU_AGL-10m_RLatLon0.03_PT010H.grib2 2026-05-05 18:09 1.9M
20260505T12Z_MSC_CAPS_WindU_AGL-120m_RLatLon0.03_PT010H.grib2 2026-05-05 18:09 918K
20260505T12Z_MSC_CAPS_WindU_AGL-40m_RLatLon0.03_PT010H.grib2 2026-05-05 18:09 1.2M
20260505T12Z_MSC_CAPS_WindU_AGL-80m_RLatLon0.03_PT010H.grib2 2026-05-05 18:09 1.2M
20260505T12Z_MSC_CAPS_WindU_IsbL-0050_RLatLon0.03_PT010H.grib2 2026-05-05 18:09 724K
20260505T12Z_MSC_CAPS_WindU_IsbL-0100_RLatLon0.03_PT010H.grib2 2026-05-05 18:09 966K
20260505T12Z_MSC_CAPS_WindU_IsbL-0150_RLatLon0.03_PT010H.grib2 2026-05-05 18:09 925K
20260505T12Z_MSC_CAPS_WindU_IsbL-0175_RLatLon0.03_PT010H.grib2 2026-05-05 18:09 737K
20260505T12Z_MSC_CAPS_WindU_IsbL-0200_RLatLon0.03_PT010H.grib2 2026-05-05 18:09 889K
20260505T12Z_MSC_CAPS_WindU_IsbL-0225_RLatLon0.03_PT010H.grib2 2026-05-05 18:09 906K
20260505T12Z_MSC_CAPS_WindU_IsbL-0250_RLatLon0.03_PT010H.grib2 2026-05-05 18:09 922K
20260505T12Z_MSC_CAPS_WindU_IsbL-0275_RLatLon0.03_PT010H.grib2 2026-05-05 18:09 926K
20260505T12Z_MSC_CAPS_WindU_IsbL-0300_RLatLon0.03_PT010H.grib2 2026-05-05 18:09 933K
20260505T12Z_MSC_CAPS_WindU_IsbL-0350_RLatLon0.03_PT010H.grib2 2026-05-05 18:09 951K
20260505T12Z_MSC_CAPS_WindU_IsbL-0400_RLatLon0.03_PT010H.grib2 2026-05-05 18:09 960K
20260505T12Z_MSC_CAPS_WindU_IsbL-0450_RLatLon0.03_PT010H.grib2 2026-05-05 18:09 1.0M
20260505T12Z_MSC_CAPS_WindU_IsbL-0500_RLatLon0.03_PT010H.grib2 2026-05-05 18:09 1.0M
20260505T12Z_MSC_CAPS_WindU_IsbL-0550_RLatLon0.03_PT010H.grib2 2026-05-05 18:09 1.0M
20260505T12Z_MSC_CAPS_WindU_IsbL-0600_RLatLon0.03_PT010H.grib2 2026-05-05 18:09 941K
20260505T12Z_MSC_CAPS_WindU_IsbL-0650_RLatLon0.03_PT010H.grib2 2026-05-05 18:09 1.0M
20260505T12Z_MSC_CAPS_WindU_IsbL-0700_RLatLon0.03_PT010H.grib2 2026-05-05 18:09 1.0M
20260505T12Z_MSC_CAPS_WindU_IsbL-0750_RLatLon0.03_PT010H.grib2 2026-05-05 18:09 1.1M
20260505T12Z_MSC_CAPS_WindU_IsbL-0800_RLatLon0.03_PT010H.grib2 2026-05-05 18:09 1.1M
20260505T12Z_MSC_CAPS_WindU_IsbL-0850_RLatLon0.03_PT010H.grib2 2026-05-05 18:09 1.2M
20260505T12Z_MSC_CAPS_WindU_IsbL-0875_RLatLon0.03_PT010H.grib2 2026-05-05 18:09 1.3M
20260505T12Z_MSC_CAPS_WindU_IsbL-0900_RLatLon0.03_PT010H.grib2 2026-05-05 18:09 1.3M
20260505T12Z_MSC_CAPS_WindU_IsbL-0925_RLatLon0.03_PT010H.grib2 2026-05-05 18:09 1.3M
20260505T12Z_MSC_CAPS_WindU_IsbL-0950_RLatLon0.03_PT010H.grib2 2026-05-05 18:09 1.4M
20260505T12Z_MSC_CAPS_WindU_IsbL-0970_RLatLon0.03_PT010H.grib2 2026-05-05 18:09 1.4M
20260505T12Z_MSC_CAPS_WindU_IsbL-0985_RLatLon0.03_PT010H.grib2 2026-05-05 18:09 1.8M
20260505T12Z_MSC_CAPS_WindU_IsbL-1000_RLatLon0.03_PT010H.grib2 2026-05-05 18:09 1.9M
20260505T12Z_MSC_CAPS_WindU_IsbL-1015_RLatLon0.03_PT010H.grib2 2026-05-05 18:09 1.9M
20260505T12Z_MSC_CAPS_WindV_AGL-10m_RLatLon0.03_PT010H.grib2 2026-05-05 18:09 1.9M
20260505T12Z_MSC_CAPS_WindV_AGL-120m_RLatLon0.03_PT010H.grib2 2026-05-05 18:09 915K
20260505T12Z_MSC_CAPS_WindV_AGL-40m_RLatLon0.03_PT010H.grib2 2026-05-05 18:09 945K
20260505T12Z_MSC_CAPS_WindV_AGL-80m_RLatLon0.03_PT010H.grib2 2026-05-05 18:09 916K
20260505T12Z_MSC_CAPS_WindV_IsbL-0050_RLatLon0.03_PT010H.grib2 2026-05-05 18:09 773K
20260505T12Z_MSC_CAPS_WindV_IsbL-0100_RLatLon0.03_PT010H.grib2 2026-05-05 18:09 794K
20260505T12Z_MSC_CAPS_WindV_IsbL-0150_RLatLon0.03_PT010H.grib2 2026-05-05 18:09 918K
20260505T12Z_MSC_CAPS_WindV_IsbL-0175_RLatLon0.03_PT010H.grib2 2026-05-05 18:09 729K
20260505T12Z_MSC_CAPS_WindV_IsbL-0200_RLatLon0.03_PT010H.grib2 2026-05-05 18:09 876K
20260505T12Z_MSC_CAPS_WindV_IsbL-0225_RLatLon0.03_PT010H.grib2 2026-05-05 18:09 896K
20260505T12Z_MSC_CAPS_WindV_IsbL-0250_RLatLon0.03_PT010H.grib2 2026-05-05 18:09 915K
20260505T12Z_MSC_CAPS_WindV_IsbL-0275_RLatLon0.03_PT010H.grib2 2026-05-05 18:09 711K
20260505T12Z_MSC_CAPS_WindV_IsbL-0300_RLatLon0.03_PT010H.grib2 2026-05-05 18:09 719K
20260505T12Z_MSC_CAPS_WindV_IsbL-0350_RLatLon0.03_PT010H.grib2 2026-05-05 18:09 733K
20260505T12Z_MSC_CAPS_WindV_IsbL-0400_RLatLon0.03_PT010H.grib2 2026-05-05 18:09 956K
20260505T12Z_MSC_CAPS_WindV_IsbL-0450_RLatLon0.03_PT010H.grib2 2026-05-05 18:09 969K
20260505T12Z_MSC_CAPS_WindV_IsbL-0500_RLatLon0.03_PT010H.grib2 2026-05-05 18:09 1.0M
20260505T12Z_MSC_CAPS_WindV_IsbL-0550_RLatLon0.03_PT010H.grib2 2026-05-05 18:09 1.0M
20260505T12Z_MSC_CAPS_WindV_IsbL-0600_RLatLon0.03_PT010H.grib2 2026-05-05 18:09 936K
20260505T12Z_MSC_CAPS_WindV_IsbL-0650_RLatLon0.03_PT010H.grib2 2026-05-05 18:09 1.2M
20260505T12Z_MSC_CAPS_WindV_IsbL-0700_RLatLon0.03_PT010H.grib2 2026-05-05 18:09 1.3M
20260505T12Z_MSC_CAPS_WindV_IsbL-0750_RLatLon0.03_PT010H.grib2 2026-05-05 18:09 1.4M
20260505T12Z_MSC_CAPS_WindV_IsbL-0800_RLatLon0.03_PT010H.grib2 2026-05-05 18:09 1.1M
20260505T12Z_MSC_CAPS_WindV_IsbL-0850_RLatLon0.03_PT010H.grib2 2026-05-05 18:09 1.2M
20260505T12Z_MSC_CAPS_WindV_IsbL-0875_RLatLon0.03_PT010H.grib2 2026-05-05 18:09 1.3M
20260505T12Z_MSC_CAPS_WindV_IsbL-0900_RLatLon0.03_PT010H.grib2 2026-05-05 18:09 1.4M
20260505T12Z_MSC_CAPS_WindV_IsbL-0925_RLatLon0.03_PT010H.grib2 2026-05-05 18:09 1.4M
20260505T12Z_MSC_CAPS_WindV_IsbL-0950_RLatLon0.03_PT010H.grib2 2026-05-05 18:09 1.4M
20260505T12Z_MSC_CAPS_WindV_IsbL-0970_RLatLon0.03_PT010H.grib2 2026-05-05 18:09 1.5M
20260505T12Z_MSC_CAPS_WindV_IsbL-0985_RLatLon0.03_PT010H.grib2 2026-05-05 18:09 1.5M
20260505T12Z_MSC_CAPS_WindV_IsbL-1000_RLatLon0.03_PT010H.grib2 2026-05-05 18:09 1.5M
20260505T12Z_MSC_CAPS_WindV_IsbL-1015_RLatLon0.03_PT010H.grib2 2026-05-05 18:09 1.9M